Date String (YYYY-MM-DD hh:mm:ss) UTC,Instrument flags,Ambient pressure (hPa),Sample flow (lpm),Bypass flow (lpm),Sample temperature (°C),Ambient temperature (°C),ASC tube jacket temperature (°C),LED temperature (°C),Box temperature (°C),Sample RH (%),Span deviation,Mass concentration (μg/m³),Mass concentration (μg/m³),Mass concentration (μg/m³)
DateTimeUTC,F1_M11,P_M11,Q1_M11,Q2_M11,T1_M11,T2_M11,T3_M11,T4_M11,T5_M11,U1_M11,ZSPAN_M11,X0_M11,X2_M11,X1_M11
2021-11-21 14:00:00,,0836.3,4.99,0.00,22.5,21.7,00.0,31.6,24.2,13.2,0000.0,0006.19,0003.19,0002.50
2021-11-21 14:01:00,,0836.2,5.00,0.00,22.5,21.7,00.0,31.6,24.2,13.5,0000.0,0006.74,0003.15,0002.47
2021-11-21 14:02:00,,0836.2,4.99,0.00,22.6,22.1,00.0,31.6,24.4,13.6,0000.0,0006.71,0003.14,0002.47
2021-11-21 14:03:00,,0836.3,5.00,0.00,22.7,22.9,00.0,31.7,24.6,13.6,0000.0,0006.65,0003.14,0002.47
2021-11-21 14:04:00,,0836.4,5.02,0.00,22.8,23.3,00.0,31.7,24.8,13.8,0000.0,0006.64,0003.15,0002.50
2021-11-21 14:05:00,,0836.4,5.00,0.00,22.8,23.1,00.0,31.7,24.8,13.8,0000.0,0006.74,0003.17,0002.55
2021-11-21 14:06:00,,0836.4,5.00,0.00,22.8,22.9,00.0,31.7,24.8,13.8,0000.0,0005.91,0003.19,0002.60
2021-11-21 14:07:00,,0836.4,5.00,0.00,22.8,22.8,00.0,31.7,24.7,13.7,0000.0,0005.95,0003.21,0002.65
2021-11-21 14:08:00,,0836.4,5.01,0.00,22.8,22.6,00.0,31.7,24.7,13.7,0000.0,0006.08,0003.29,0002.73
2021-11-21 14:09:00,,0836.3,4.99,0.00,22.8,22.5,00.0,31.7,24.7,13.4,0000.0,0006.38,0003.32,0002.78
2021-11-21 14:10:00,,0836.3,5.01,0.00,22.8,22.4,00.0,31.8,24.6,13.4,0000.0,0006.53,0003.33,0002.83
2021-11-21 14:11:00,,0836.3,4.99,0.00,22.8,22.3,00.0,31.8,24.6,13.3,0000.0,0006.42,0003.33,0002.85
2021-11-21 14:12:00,,0836.3,5.00,0.00,22.8,22.2,00.0,31.8,24.6,13.1,0000.0,0005.58,0003.31,0002.83
2021-11-21 14:13:00,,0836.3,5.00,0.00,22.8,22.2,00.0,31.8,24.6,13.1,0000.0,0005.59,0003.30,0002.80
2021-11-21 14:14:00,,0836.4,4.99,0.00,22.8,22.2,00.0,31.8,24.5,13.2,0000.0,0005.52,0003.27,0002.76
2021-11-21 14:15:00,,0836.4,5.01,0.00,22.8,22.1,00.0,31.8,24.5,13.3,0000.0,0005.48,0003.24,0002.72
2021-11-21 14:16:00,,0836.4,4.99,0.00,22.8,22.1,00.0,31.8,24.5,13.3,0000.0,0005.32,0003.21,0002.68
2021-11-21 14:17:00,,0836.5,5.01,0.00,22.8,22.1,00.0,31.8,24.5,13.5,0000.0,0006.82,0003.21,0002.66
2021-11-21 14:18:00,,0836.4,4.98,0.00,22.8,22.0,00.0,31.8,24.5,13.5,0000.0,0006.79,0003.21,0002.66
2021-11-21 14:19:00,,0836.4,5.01,0.00,22.7,22.0,00.0,31.8,24.5,13.5,0000.0,0006.72,0003.21,0002.66
2021-11-21 14:20:00,,0836.5,5.00,0.00,22.7,22.0,00.0,31.8,24.5,13.6,0000.0,0006.61,0003.22,0002.69
2021-11-21 14:21:00,,0836.5,4.99,0.00,22.7,22.0,00.0,31.8,24.5,13.6,0000.0,0006.55,0003.26,0002.73
2021-11-21 14:22:00,,0836.5,5.00,0.00,22.7,22.0,00.0,31.8,24.5,13.7,0000.0,0006.65,0003.30,0002.78
2021-11-21 14:23:00,,0836.5,5.00,0.00,22.7,22.0,00.0,31.7,24.4,13.9,0000.0,0007.02,0003.37,0002.87
2021-11-21 14:24:00,,0836.5,4.99,0.00,22.7,22.0,00.0,31.7,24.4,14.0,0000.0,0007.44,0003.43,0002.97
2021-11-21 14:25:00,,0836.5,5.00,0.00,22.7,22.0,00.0,31.7,24.5,13.9,0000.0,0007.53,0003.48,0003.03
2021-11-21 14:26:00,,0836.5,5.00,0.00,22.7,21.9,00.0,31.7,24.4,13.7,0000.0,0008.09,0003.52,0003.09
2021-11-21 14:27:00,,0836.5,5.00,0.00,22.7,21.9,00.0,31.7,24.4,13.6,0000.0,0008.30,0003.51,0003.12
2021-11-21 14:28:00,,0836.5,4.99,0.00,22.7,21.9,00.0,31.7,24.4,13.6,0000.0,0007.68,0003.52,0003.13
2021-11-21 14:29:00,,0836.5,4.99,0.00,22.7,21.9,00.0,31.7,24.4,13.7,0000.0,0007.48,0003.53,0003.14
2021-11-21 14:30:00,,0836.5,5.01,0.00,22.7,21.9,00.0,31.7,24.4,13.5,0000.0,0007.49,0003.53,0003.15
2021-11-21 14:31:00,,0836.5,5.00,0.00,22.7,21.9,00.0,31.7,24.3,13.7,0000.0,0007.53,0003.55,0003.16
2021-11-21 14:32:00,,0836.5,4.99,0.00,22.7,21.9,00.0,31.7,24.3,13.7,0000.0,0007.74,0003.61,0003.17
2021-11-21 14:33:00,,0836.5,5.01,0.00,22.7,21.9,00.0,31.7,24.4,13.7,0000.0,0007.80,0003.64,0003.18
2021-11-21 14:34:00,,0836.5,4.99,0.00,22.7,21.9,00.0,31.7,24.4,13.7,0000.0,0007.80,0003.65,0003.19
2021-11-21 14:35:00,,0836.6,5.00,0.00,22.7,21.9,00.0,31.7,24.4,13.8,0000.0,0008.37,0003.65,0003.19
2021-11-21 14:36:00,,0836.5,5.01,0.00,22.7,21.9,00.0,31.7,24.4,13.8,0000.0,0008.82,0003.64,0003.18
2021-11-21 14:37:00,,0836.5,4.99,0.00,22.7,21.9,00.0,31.7,24.4,13.8,0000.0,0008.55,0003.62,0003.18
2021-11-21 14:38:00,,0836.6,5.00,0.00,22.7,21.9,00.0,31.7,24.4,13.8,0000.0,0008.57,0003.63,0003.19
2021-11-21 14:39:00,,0836.6,5.01,0.00,22.7,21.9,00.0,31.7,24.5,13.8,0000.0,0008.44,0003.63,0003.20
2021-11-21 14:40:00,,0836.5,5.01,0.00,22.7,21.9,00.0,31.7,24.5,13.8,0000.0,0008.36,0003.61,0003.20
2021-11-21 14:41:00,,0836.6,4.99,0.00,22.7,21.9,00.0,31.7,24.5,13.9,0000.0,0008.90,0003.62,0003.21
2021-11-21 14:42:00,,0836.6,5.01,0.00,22.7,21.9,00.0,31.7,24.5,13.8,0000.0,0009.11,0003.61,0003.22
2021-11-21 14:43:00,,0836.6,4.99,0.00,22.7,21.9,00.0,31.7,24.5,13.8,0000.0,0009.13,0003.58,0003.22
2021-11-21 14:44:00,,0836.6,5.00,0.00,22.7,21.9,00.0,31.7,24.4,13.8,0000.0,0009.05,0003.54,0003.23
2021-11-21 14:45:00,,0836.6,5.00,0.00,22.7,21.9,00.0,31.7,24.4,13.9,0000.0,0009.07,0003.53,0003.23
2021-11-21 14:46:00,,0836.6,5.01,0.00,22.7,21.9,00.0,31.7,24.4,13.7,0000.0,0008.81,0003.53,0003.23
2021-11-21 14:47:00,,0836.6,5.00,0.00,22.7,21.8,00.0,31.7,24.4,13.2,0000.0,0007.97,0003.52,0003.20
2021-11-21 14:48:00,,0836.7,5.01,0.00,22.8,21.8,00.0,31.7,24.5,13.3,0000.0,0007.99,0003.50,0003.18
2021-11-21 14:49:00,,0836.6,4.99,0.00,22.8,21.8,00.0,31.7,24.5,13.2,0000.0,0007.54,0003.49,0003.17
2021-11-21 14:50:00,,0836.6,5.00,0.00,22.8,21.8,00.0,31.7,24.5,13.1,0000.0,0007.46,0003.47,0003.15
2021-11-21 14:51:00,,0836.6,5.01,0.00,22.8,21.8,00.0,31.7,24.5,13.2,0000.0,0007.40,0003.44,0003.12
2021-11-21 14:52:00,,0836.6,5.01,0.00,22.8,21.8,00.0,31.8,24.4,13.3,0000.0,0006.59,0003.41,0003.07
2021-11-21 14:53:00,,0836.6,4.99,0.00,22.8,21.8,00.0,31.8,24.5,13.3,0000.0,0005.92,0003.38,0003.02
2021-11-21 14:54:00,,0836.7,5.00,0.00,22.8,21.8,00.0,31.8,24.4,13.3,0000.0,0005.45,0003.35,0002.97
2021-11-21 14:55:00,,0836.7,5.00,0.00,22.8,21.8,00.0,31.8,24.5,13.3,0000.0,0005.50,0003.35,0002.92
2021-11-21 14:56:00,,0836.7,4.99,0.00,22.8,21.8,00.0,31.8,24.5,13.4,0000.0,0005.75,0003.35,0002.87
2021-11-21 14:57:00,,0836.7,5.00,0.00,22.8,21.8,00.0,31.8,24.6,13.6,0000.0,0005.89,0003.33,0002.82
2021-11-21 14:58:00,,0836.7,5.00,0.00,22.8,21.8,00.0,31.8,24.6,13.6,0000.0,0005.61,0003.33,0002.84
2021-11-21 14:59:00,,0836.7,5.00,0.00,22.8,21.9,00.0,31.8,24.6,13.6,0000.0,0005.84,0003.34,0002.88
